NOAA NWS Hourly Roundups by Site

Regional Weather Roundup for Phoenix, AZ

To Select Another Site Choose from List

Select Site:  

000
ASUS45 KPSR 240510
RWRAZ

ARIZONA HOURLY REGIONAL WEATHER ROUNDUP
NATIONAL WEATHER SERVICE PHOENIX AZ
1000 PM MST SAT FEB 23 2019

NOTE: FAIR INDICATES FEW OR NO CLOUDS BELOW 12,000 FEET WITH NO
SIGNIFICANT WEATHER AND/OR OBSTRUCTIONS TO VISIBILITY.

AZZ001>003-036-240600-
NORTHWEST ARIZONA

CITY           SKY/WX    TMP DP  RH WIND       PRES   REMARKS
BULLHEAD CITY  PTCLDY    48  32  53 E5        30.28
KINGMAN        CLEAR     24  17  74 E3        30.26S
$$

AZZ004>008-015-016-018-240600-
NORTH CENTRAL ARIZONA

CITY           SKY/WX    TMP DP  RH WIND       PRES   REMARKS
GRAND CANYON   MOCLDY     9   4  80 CALM      30.23S
WILLIAMS       CLEAR     10   7  85 S8        30.21  WCI  -1
PRESCOTT       PTCLDY    18  14  84 S3        30.25R
FLAGSTAFF      CLEAR     11   6  81 CALM      30.23R
PAYSON         CLEAR     25  23  93 CALM      30.24
PAGE           CLEAR     32  20  61 SE5       30.27R WCI  27
$$

AZZ009>014-017-240600-
NORTHEAST ARIZONA

CITY           SKY/WX    TMP DP  RH WIND       PRES   REMARKS
WINSLOW        PTCLDY    21  17  84 SE7       30.29R WCI  12
SAINT JOHNS    PTCLDY    15  12  88 CALM      30.26R
WINDOW ROCK    PTCLDY     0  -2  91 SW3       30.27R
SHOW LOW       DRIZZLE   12   5  73 CALM      30.26R
$$

AZZ540-542>544-546-548-240600-
GREATER PHOENIX AREA

CITY           SKY/WX    TMP DP  RH WIND       PRES   REMARKS
PHOENIX        CLEAR     46  34  62 E7        30.26S
BUCKEYE        CLEAR     41  36  81 N7        30.30
LUKE AFB       CLEAR     43  39  85 N7        30.26R
DEER VALLEY    CLEAR     42  28  57 CALM      30.28R
SCOTTSDALE     CLEAR     43  29  57 CALM      30.25S
MESA-FALCON    CLEAR     44  29  55 NE12      30.27S
MESA-GATEWAY   PTCLDY    45  36  70 VRB5      30.28R
$$

AZZ539-553-240600-
SOUTHWEST MARICOPA COUNTY AND PINAL COUNTY

CITY           SKY/WX    TMP DP  RH WIND       PRES   REMARKS
CASA GRANDE    CLEAR     43  33  68 N8        30.27R
GILA BEND      FAIR      44  37  79 E7        30.26S
$$

AZZ503-504-507>509-240600-
SOUTHEAST ARIZONA

CITY           SKY/WX    TMP DP  RH WIND       PRES   REMARKS
TUCSON         CLEAR     42  29  59 E9        30.24F
DAVIS-MONTHAN  CLEAR     39  30  69 SE12      30.23  WCI  32
NOGALES        CLEAR     28  21  75 E6        30.21S WCI  22
SIERRA VISTA   PTCLDY    32  24  70 SE5       30.26R WCI  28
DOUGLAS        CLEAR     29  26  89 N6        30.26R WCI  23
SAFFORD        CLEAR     33  30  88 VRB3      30.26R
$$

AZZ532-240600-
SOUTHWEST ARIZONA

CITY           SKY/WX    TMP DP  RH WIND       PRES   REMARKS
YUMA           CLEAR     52  26  36 E3        30.27R
$$

CAZ041-043-047-048-061-525>527-560>570-240600-
SOUTHERN CALIFORNIA

CITY           SKY/WX    TMP DP  RH WIND       PRES   REMARKS
DOWNTOWN L.A.  CLOUDY    53  43  68 CALM      30.26S
L.A. AIRPORT   CLOUDY    53  44  71 W8        30.27S
SAN DIEGO      MOCLDY    54  38  54 CALM      30.28S
BURBANK        CLOUDY    52  30  43 NW3       30.25F
ONTARIO        MOCLDY    53  35  50 SW6       30.25R
RIVERSIDE      MOCLDY    49  34  56 CALM      30.27R
PALM SPRINGS   PTCLDY    50  36  58 N6        30.28S
EL CENTRO NAS  PTCLDY    50  21  32 CALM      30.28
IMPERIAL       PTCLDY    43  27  53 CALM      30.26R
BLYTHE         PTCLDY    48  27  44 NW7       30.27S
NEEDLES        MOCLDY    49  34  56 W8        30.27S
$$

NVZ020-UTZ003-240600-
SOUTHERN NEVADA-UTAH

CITY           SKY/WX    TMP DP  RH WIND       PRES   REMARKS
LAS VEGAS      PTCLDY    43  25  49 N8        30.26R
SALT LAKE CITY MOCLDY    31  11  43 SE10      30.21S WCI  22
$$

NMZ009-TXZ055-240600-
NEW MEXICO-WEST TEXAS

CITY           SKY/WX    TMP DP  RH WIND       PRES   REMARKS
ALBUQUERQUE    CLEAR     32   9  37 N12       30.28R WCI  23
EL PASO        CLEAR     41  20  43 SW6       30.24R
$$


........................KEY........................
SKY/WX - SKY CONDITION/WEATHER
TMP    - TEMPERATURE IN FAHRENHEIT
DP     - DEW POINT IN FAHRENHEIT
RH     - RELATIVE HUMIDITY IN PERCENT
WIND   - DIRECTION AND SPEED IN MILES PER HOUR (MPH)
VRB    - VARIABLE WIND DIRECTION
PRES   - MEAN SEA LEVEL PRESSURE IN INCHES OF MERCURY
         F - FALLING PRESSURE   R - RISING PRESSURE
         S - STEADY PRESSURE
VSB    - VISIBILITY IN MILES
HX     - HEAT INDEX IN FAHRENHEIT
WCI    - WIND CHILL INDEX IN FAHRENHEIT
TC     - TEMPERATURE IN CELSIUS WHICH IS ALSO KNOWN AS
         TEMPERATURE IN CENTIGRADE
AFB    - AIR FORCE BASE
         LUKE AFB IS LUKE AIR FORCE BASE
         DAVIS-MONTHAN IS DAVIS-MONTHAN AIR FORCE BASE
NAS    - NAVAL AIR STATION
         EL CENTRO NAS IS EL CENTRO NAVAL AIR STATION
N/A    - NOT AVAILABLE



 

View Past Reports for Phoenix, AZ.

Products Courtesy of NOAA-NWS
NWS Information Parsing Script by Ken True at Saratoga Weather - Script by SE Lincoln Weather.